Weather Roundup
Issued by NWS

Home | Current Version | Previous Version | Graphics & Text | Print | Product List | Glossary Off
Versions: 1 2 3 4 5 6 7 8 9 10 11 12 13 14 15 16 17 18 19 20 21 22 23 24 25 26 27 28 29 30 31 32 33 34 35 36 37 38 39 40 41 42 43 44 45 46 47 48 49 50

000
NZUS93 KARX 041459
HRRWXR

CURRENT HOURLY OBSERVATIONS ACROSS
MUCH OF THE UPPER MISSISSIPPI VALLEY
NATIONAL WEATHER SERVICE LA CROSSE WI
1000 AM CDT FRI SEP 04 2015


...SOUTHEAST MINNESOTA...


CITY           SKY/WX    TMP DP  RH WIND       PRES   REMARKS
ROCHESTER      PTSUNNY   74  70  87 S9        30.00S
ROCHESTER/MAYO PTSUNNY   73  71  94 SE7       29.99S
WINONA         SUNNY     77  66  69 SE8       30.00R
AUSTIN         SUNNY     77  72  83 SE5       29.99R
ALBERT LEA     SUNNY     79  72  78 S8        29.97S
DODGE CENTER   MOSUNNY   75  72  88 S10       29.99R
PRESTON        SUNNY     74  69  81 SE7       30.01S
OWATONNA       SUNNY     79  70  73 S10G16    29.96S
FARIBAULT      SUNNY     81  72  74 S9        29.96R
$$

...ELSEWHERE IN MINNESOTA...


CITY           SKY/WX    TMP DP  RH WIND       PRES   REMARKS
MINNEAPOLIS    PTSUNNY   74  69  85 SE13      29.94S
INTNL FALLS    CLOUDY    72  64  76 SE12      29.95R
DULUTH         MOSUNNY   68  61  78 SE12      30.01S
RED WING       SUNNY     77  66  69 SE14      29.96S
REDWOOD FALLS  SUNNY     80  70  71 S14       29.85F
MANKATO        SUNNY     79  72  78 S10       29.91F
WORTHINGTON    PTSUNNY   75  66  73 S13       29.89S
FAIRMONT       SUNNY     79  66  65 S10       29.91S
$$

...SOUTHWEST WISCONSIN...


CITY           SKY/WX    TMP DP  RH WIND       PRES   REMARKS
LA CROSSE      PTSUNNY   78  68  71 S8        30.00R
PRAIRIE DU CHI SUNNY     76  67  74 E6        30.01R
BOSCOBEL       SUNNY     79  68  69 S5        30.01S
LONE ROCK      NOT AVBL
PLATTEVILLE    SUNNY     75  70  85 SE3       30.03R
FORT MC COY    CLOUDY    73  63  70 E6        30.03S
VIROQUA          N/A     74  67  79 SE7       30.03S
WIS DELLS      CLOUDY    69  64  84 E8        30.05R
$$

...ELSEWHERE IN WISCONSIN...


CITY           SKY/WX    TMP DP  RH WIND       PRES   REMARKS
MILWAUKEE      PTSUNNY   71  64  78 NE9       30.04R
MADISON        PTSUNNY   72  66  81 E6        30.04S HAZE
GREEN BAY      CLOUDY    70  65  84 VRB5      30.05R
EAU CLAIRE     NOT AVBL
BLACK RVR FLS  CLOUDY    73  64  74 E7        30.02R
MEDFORD        MOSUNNY   68  64  88 SE8       30.06R
WAUSAU         CLOUDY    68  64  87 SE8       30.05R
WIS RAPIDS     CLOUDY    67  63  87 E8        30.07R
MARSHFIELD     CLOUDY    67  62  84 E7        30.07R HAZE
RICE LAKE      CLOUDY    71  63  78 SE13      30.03R
$$

...NORTHEAST IOWA...


CITY           SKY/WX    TMP DP  RH WIND       PRES   REMARKS
DECORAH        CLOUDY    72  70  94 VRB3      30.01R FOG
MASON CITY     MOSUNNY   78  72  81 SE9       29.98F
CHARLES CITY   SUNNY     77  73  88 VRB6      30.00S
OELWEIN        SUNNY     77  72  83 S6        30.02R
$$

...ELSEWHERE IN IOWA...


CITY           SKY/WX    TMP DP  RH WIND       PRES   REMARKS
DES MOINES     MOSUNNY   82  70  66 S8        29.97S
IOWA CITY      SUNNY     81  71  71 S5        30.02R
FORT DODGE     SUNNY     81  68  65 S9        29.95F
$$

...NORTHERN ILLINOIS...


CITY           SKY/WX    TMP DP  RH WIND       PRES   REMARKS
CHICAGO-OHARE  PTSUNNY   75  66  73 VRB6      30.03R
CHICAGO-MIDWAY MOSUNNY   78  67  68 E6        30.03R
MOLINE         SUNNY     84  70  62 CALM      30.01R
ROCKFORD       MOSUNNY   77  68  73 SE8       30.05R
PEORIA         SUNNY     86  70  58 NW3       30.03R HX  90
$$

NOTE: "FAIR" INDICATES FEW OR NO CLOUDS BELOW 12,000 FEET WITH NO
SIGNIFICANT WEATHER AND/OR OBSTRUCTIONS TO VISIBILITY. WIND
SPEEDS ARE IN MILES-PER-HOUR.



USA.gov is the U.S. government's official web portal to all federal, state and local government web resources and services.